EW1233 Weather Reports


Display with metric or nautical units.
time (UTC)temp
F
wind
direction
speed
MPH
gust
MPH
rain 1hr
in
rain 24hr
in
rain mn
in
humidity
%
barometer
mb
20260504050107 56 219 13.0 18.0 0.00 0.00 0.00 61 997.8
20260504044544 56 223 10.0 18.0 0.00 0.00 0.00 61 998.1
20260504043106 56 224 10.0 19.0 0.00 0.00 0.00 60 998.3
20260504041528 56 208 11.0 18.0 0.00 0.00 0.00 59 998.7
20260504040107 55 223 10.0 14.0 0.00 0.00 0.00 60 998.8
20260504034535 56 223 6.0 10.0 0.00 0.00 0.00 60 999.0
20260504033113 57 223 8.0 14.0 0.00 0.00 0.00 58 999.1
20260504031515 57 221 8.0 12.0 0.00 0.00 0.00 57 999.4
20260504030056 57 215 9.0 13.0 0.00 0.00 0.00 56 999.6
20260504024517 57 214 8.0 12.0 0.00 0.00 0.00 55 999.7
20260504023051 57 221 8.0 13.0 0.00 0.00 0.00 57 999.8
20260504021502 57 216 8.0 11.0 0.00 0.00 0.00 55 999.7
20260504020040 58 219 7.0 10.0 0.00 0.00 0.00 53 999.9
20260504014531 60 219 6.0 10.0 0.00 0.00 0.00 51 1000.2
20260504013106 61 222 5.0 8.0 0.00 0.00 0.00 49 1000.4
20260504011520 63 221 6.0 11.0 0.00 0.00 0.00 46 1000.5
20260504010107 65 216 6.0 12.0 0.00 0.00 0.00 43 1000.9
20260504004557 67 217 8.0 17.0 0.00 0.00 0.00 39 1001.2
20260504003056 68 230 9.0 16.0 0.00 0.00 0.00 35 1001.6
20260504001611 69 232 7.0 17.0 0.00 0.00 0.00 34 1001.8
20260504000050 69 236 8.0 21.0 0.00 0.00 0.00 34 1002.2
20260503234548 69 235 10.0 20.0 0.00 0.00 0.00 33 1002.7
20260503233047 70 251 10.0 18.0 0.00 0.00 0.00 32 1002.9
20260503231545 71 239 9.0 15.0 0.00 0.00 0.00 33 1003.1
20260503230043 71 250 12.0 19.0 0.00 0.00 0.00 31 1003.3
20260503224542 71 229 12.0 19.0 0.00 0.00 0.00 32 1003.5
20260503223042 71 232 8.0 14.0 0.00 0.00 0.00 31 1003.9
20260503221542 71 275 7.0 18.0 0.00 0.00 0.00 29 1004.1
20260503220044 71 277 6.0 15.0 0.00 0.00 0.00 32 1004.4
20260503214532 71 254 11.0 16.0 0.00 0.00 0.00 31 1004.7
20260503213037 70 250 4.0 16.0 0.00 0.00 0.00 29 1005.1
20260503211528 71 248 7.0 14.0 0.00 0.00 0.00 29 1005.5
20260503210026 71 257 7.0 14.0 0.00 0.00 0.00 30 1005.7
20260503204526 71 297 5.0 15.0 0.00 0.00 0.00 28 1006.0
20260503203022 70 300 5.0 13.0 0.00 0.00 0.00 28 1006.3
20260503201527 70 279 5.0 12.0 0.00 0.00 0.00 27 1006.7
20260503200016 69 240 6.0 14.0 0.00 0.00 0.00 28 1007.1
20260503194511 69 325 4.0 15.0 0.00 0.00 0.00 30 1007.3
20260503193008 69 223 7.0 14.0 0.00 0.00 0.00 30 1007.5
20260503191506 68 299 3.0 9.0 0.00 0.00 0.00 30 1007.8
20260503190024 68 263 6.0 14.0 0.00 0.00 0.00 31 1008.1
20260503184525 67 252 7.0 14.0 0.00 0.00 0.00 32 1008.4
20260503183024 67 303 5.0 17.0 0.00 0.00 0.00 34 1008.9
20260503181525 67 310 5.0 14.0 0.00 0.00 0.00 32 1009.1
20260503180009 66 240 4.0 12.0 0.00 0.00 0.00 37 1009.3
20260503174506 65 225 4.0 12.0 0.00 0.00 0.00 35 1009.7
20260503173015 66 292 7.0 16.0 0.00 0.00 0.00 37 1009.9
20260503171504 66 285 5.0 10.0 0.00 0.00 0.00 38 1010.1
20260503100107 41 360 0.0 0.0 0.00 0.00 0.00 82 1011.4
20260503081537 45 350 4.0 8.0 0.00 0.00 0.00 76 1010.7